Data supplied by UK-AIR on 5/4/2008
All Data GMT hour ending 
Status: R =Ratified P=Provisional,P*=As supplied
,,Billingham,,,,,,,,,,,,,,,,,,,,,,,
Date,time,"Nitric oxide",status,unit,"Nitrogen dioxide",status,unit,"Nitrogen oxides as nitrogen dioxide",status,unit
 
01-01-1994,01:00,,,,,,,,,
01-01-1994,02:00,4,R,ugm-3,31,R,ugm-3,36,R,ugm-3
01-01-1994,03:00,3,R,ugm-3,25,R,ugm-3,29,R,ugm-3
01-01-1994,04:00,1,R,ugm-3,21,R,ugm-3,23,R,ugm-3
01-01-1994,05:00,3,R,ugm-3,17,R,ugm-3,21,R,ugm-3
01-01-1994,06:00,3,R,ugm-3,17,R,ugm-3,21,R,ugm-3
01-01-1994,07:00,3,R,ugm-3,11,R,ugm-3,15,R,ugm-3
01-01-1994,08:00,4,R,ugm-3,29,R,ugm-3,34,R,ugm-3
01-01-1994,09:00,5,R,ugm-3,27,R,ugm-3,34,R,ugm-3
01-01-1994,10:00,3,R,ugm-3,11,R,ugm-3,15,R,ugm-3
01-01-1994,11:00,6,R,ugm-3,15,R,ugm-3,25,R,ugm-3
01-01-1994,12:00,11,R,ugm-3,29,R,ugm-3,46,R,ugm-3
01-01-1994,13:00,10,R,ugm-3,27,R,ugm-3,42,R,ugm-3
01-01-1994,14:00,9,R,ugm-3,21,R,ugm-3,34,R,ugm-3
01-01-1994,15:00,5,R,ugm-3,23,R,ugm-3,31,R,ugm-3
01-01-1994,16:00,20,R,ugm-3,42,R,ugm-3,73,R,ugm-3
01-01-1994,17:00,78,R,ugm-3,86,R,ugm-3,204,R,ugm-3
01-01-1994,18:00,75,R,ugm-3,78,R,ugm-3,193,R,ugm-3
01-01-1994,19:00,101,R,ugm-3,86,R,ugm-3,241,R,ugm-3
01-01-1994,20:00,40,R,ugm-3,50,R,ugm-3,111,R,ugm-3
01-01-1994,21:00,15,R,ugm-3,44,R,ugm-3,67,R,ugm-3
01-01-1994,22:00,6,R,ugm-3,36,R,ugm-3,46,R,ugm-3
01-01-1994,23:00,6,R,ugm-3,32,R,ugm-3,42,R,ugm-3
01-01-1994,24:00,8,R,ugm-3,31,R,ugm-3,42,R,ugm-3
02-01-1994,01:00,3,R,ugm-3,13,R,ugm-3,17,R,ugm-3
02-01-1994,02:00,3,R,ugm-3,13,R,ugm-3,17,R,ugm-3
02-01-1994,03:00,3,R,ugm-3,6,R,ugm-3,10,R,ugm-3
02-01-1994,04:00,4,R,ugm-3,6,R,ugm-3,11,R,ugm-3
02-01-1994,05:00,8,R,ugm-3,15,R,ugm-3,27,R,ugm-3
02-01-1994,06:00,3,R,ugm-3,4,R,ugm-3,8,R,ugm-3
02-01-1994,07:00,31,R,ugm-3,52,R,ugm-3,99,R,ugm-3
02-01-1994,08:00,5,R,ugm-3,23,R,ugm-3,31,R,ugm-3
02-01-1994,09:00,5,R,ugm-3,13,R,ugm-3,21,R,ugm-3
02-01-1994,10:00,6,R,ugm-3,10,R,ugm-3,19,R,ugm-3
02-01-1994,11:00,8,R,ugm-3,13,R,ugm-3,25,R,ugm-3
02-01-1994,12:00,9,R,ugm-3,17,R,ugm-3,31,R,ugm-3
02-01-1994,13:00,11,R,ugm-3,17,R,ugm-3,34,R,ugm-3
02-01-1994,14:00,13,R,ugm-3,27,R,ugm-3,46,R,ugm-3
02-01-1994,15:00,15,R,ugm-3,32,R,ugm-3,55,R,ugm-3
02-01-1994,16:00,34,R,ugm-3,44,R,ugm-3,96,R,ugm-3
02-01-1994,17:00,24,R,ugm-3,44,R,ugm-3,80,R,ugm-3
02-01-1994,18:00,71,R,ugm-3,48,R,ugm-3,157,R,ugm-3
02-01-1994,19:00,75,R,ugm-3,50,R,ugm-3,164,R,ugm-3
02-01-1994,20:00,38,R,ugm-3,42,R,ugm-3,99,R,ugm-3
02-01-1994,21:00,8,R,ugm-3,31,R,ugm-3,42,R,ugm-3
02-01-1994,22:00,4,R,ugm-3,15,R,ugm-3,21,R,ugm-3
02-01-1994,23:00,3,R,ugm-3,11,R,ugm-3,15,R,ugm-3
02-01-1994,24:00,4,R,ugm-3,8,R,ugm-3,13,R,ugm-3
03-01-1994,01:00,4,R,ugm-3,17,R,ugm-3,23,R,ugm-3
03-01-1994,02:00,3,R,ugm-3,13,R,ugm-3,17,R,ugm-3
03-01-1994,03:00,5,R,ugm-3,8,R,ugm-3,15,R,ugm-3
03-01-1994,04:00,34,R,ugm-3,34,R,ugm-3,86,R,ugm-3
03-01-1994,05:00,5,R,ugm-3,19,R,ugm-3,27,R,ugm-3
03-01-1994,06:00,23,R,ugm-3,42,R,ugm-3,76,R,ugm-3
03-01-1994,07:00,65,R,ugm-3,65,R,ugm-3,164,R,ugm-3
03-01-1994,08:00,103,R,ugm-3,84,R,ugm-3,241,R,ugm-3
03-01-1994,09:00,58,R,ugm-3,65,R,ugm-3,153,R,ugm-3
03-01-1994,10:00,93,R,ugm-3,82,R,ugm-3,223,R,ugm-3
03-01-1994,11:00,54,R,ugm-3,65,R,ugm-3,147,R,ugm-3
03-01-1994,12:00,35,R,ugm-3,52,R,ugm-3,105,R,ugm-3
03-01-1994,13:00,10,R,ugm-3,38,R,ugm-3,53,R,ugm-3
03-01-1994,14:00,6,R,ugm-3,25,R,ugm-3,34,R,ugm-3
03-01-1994,15:00,8,R,ugm-3,31,R,ugm-3,42,R,ugm-3
03-01-1994,16:00,5,R,ugm-3,32,R,ugm-3,40,R,ugm-3
03-01-1994,17:00,8,R,ugm-3,32,R,ugm-3,44,R,ugm-3
03-01-1994,18:00,21,R,ugm-3,40,R,ugm-3,73,R,ugm-3
03-01-1994,19:00,26,R,ugm-3,53,R,ugm-3,94,R,ugm-3
03-01-1994,20:00,9,R,ugm-3,46,R,ugm-3,59,R,ugm-3
03-01-1994,21:00,31,R,ugm-3,50,R,ugm-3,97,R,ugm-3
03-01-1994,22:00,53,R,ugm-3,46,R,ugm-3,126,R,ugm-3
03-01-1994,23:00,33,R,ugm-3,46,R,ugm-3,96,R,ugm-3
03-01-1994,24:00,13,R,ugm-3,42,R,ugm-3,61,R,ugm-3
04-01-1994,01:00,8,R,ugm-3,23,R,ugm-3,34,R,ugm-3
04-01-1994,02:00,3,R,ugm-3,15,R,ugm-3,19,R,ugm-3
04-01-1994,03:00,4,R,ugm-3,13,R,ugm-3,19,R,ugm-3
04-01-1994,04:00,5,R,ugm-3,15,R,ugm-3,23,R,ugm-3
04-01-1994,05:00,4,R,ugm-3,13,R,ugm-3,19,R,ugm-3
04-01-1994,06:00,19,R,ugm-3,32,R,ugm-3,61,R,ugm-3
04-01-1994,07:00,141,R,ugm-3,80,R,ugm-3,296,R,ugm-3
04-01-1994,08:00,364,R,ugm-3,117,R,ugm-3,672,R,ugm-3
04-01-1994,09:00,209,R,ugm-3,53,R,ugm-3,372,R,ugm-3
04-01-1994,10:00,193,R,ugm-3,48,R,ugm-3,342,R,ugm-3
04-01-1994,11:00,115,R,ugm-3,38,R,ugm-3,214,R,ugm-3
04-01-1994,12:00,93,R,ugm-3,34,R,ugm-3,176,R,ugm-3
04-01-1994,13:00,110,R,ugm-3,38,R,ugm-3,206,R,ugm-3
04-01-1994,14:00,114,R,ugm-3,40,R,ugm-3,214,R,ugm-3
04-01-1994,15:00,111,R,ugm-3,46,R,ugm-3,216,R,ugm-3
04-01-1994,16:00,,,,,,,,,
04-01-1994,17:00,210,R,ugm-3,42,R,ugm-3,363,R,ugm-3
04-01-1994,18:00,235,R,ugm-3,46,R,ugm-3,405,R,ugm-3
04-01-1994,19:00,268,R,ugm-3,42,R,ugm-3,451,R,ugm-3
04-01-1994,20:00,250,R,ugm-3,50,R,ugm-3,432,R,ugm-3
04-01-1994,21:00,145,R,ugm-3,38,R,ugm-3,260,R,ugm-3
04-01-1994,22:00,68,R,ugm-3,38,R,ugm-3,141,R,ugm-3
04-01-1994,23:00,55,R,ugm-3,36,R,ugm-3,120,R,ugm-3
04-01-1994,24:00,36,R,ugm-3,40,R,ugm-3,96,R,ugm-3
05-01-1994,01:00,3,R,ugm-3,25,R,ugm-3,29,R,ugm-3
05-01-1994,02:00,41,R,ugm-3,46,R,ugm-3,109,R,ugm-3
05-01-1994,03:00,53,R,ugm-3,57,R,ugm-3,138,R,ugm-3
05-01-1994,04:00,24,R,ugm-3,46,R,ugm-3,82,R,ugm-3
05-01-1994,05:00,8,R,ugm-3,40,R,ugm-3,52,R,ugm-3
05-01-1994,06:00,56,R,ugm-3,52,R,ugm-3,138,R,ugm-3
05-01-1994,07:00,30,R,ugm-3,46,R,ugm-3,92,R,ugm-3
05-01-1994,08:00,28,R,ugm-3,38,R,ugm-3,80,R,ugm-3
05-01-1994,09:00,54,R,ugm-3,63,R,ugm-3,145,R,ugm-3
05-01-1994,10:00,11,R,ugm-3,40,R,ugm-3,57,R,ugm-3
05-01-1994,11:00,33,R,ugm-3,57,R,ugm-3,107,R,ugm-3
05-01-1994,12:00,16,R,ugm-3,52,R,ugm-3,76,R,ugm-3
05-01-1994,13:00,9,R,ugm-3,44,R,ugm-3,57,R,ugm-3
05-01-1994,14:00,93,R,ugm-3,55,R,ugm-3,197,R,ugm-3
05-01-1994,15:00,155,R,ugm-3,103,R,ugm-3,340,R,ugm-3
05-01-1994,16:00,119,R,ugm-3,55,R,ugm-3,237,R,ugm-3
05-01-1994,17:00,114,R,ugm-3,55,R,ugm-3,229,R,ugm-3
05-01-1994,18:00,89,R,ugm-3,53,R,ugm-3,189,R,ugm-3
05-01-1994,19:00,58,R,ugm-3,50,R,ugm-3,138,R,ugm-3
05-01-1994,20:00,46,R,ugm-3,48,R,ugm-3,118,R,ugm-3
05-01-1994,21:00,25,R,ugm-3,44,R,ugm-3,82,R,ugm-3
05-01-1994,22:00,14,R,ugm-3,44,R,ugm-3,65,R,ugm-3
05-01-1994,23:00,6,R,ugm-3,21,R,ugm-3,31,R,ugm-3
05-01-1994,24:00,3,R,ugm-3,17,R,ugm-3,21,R,ugm-3
06-01-1994,01:00,3,R,ugm-3,13,R,ugm-3,17,R,ugm-3
06-01-1994,02:00,1,R,ugm-3,6,R,ugm-3,8,R,ugm-3
06-01-1994,03:00,1,R,ugm-3,8,R,ugm-3,10,R,ugm-3
06-01-1994,04:00,3,R,ugm-3,10,R,ugm-3,13,R,ugm-3
06-01-1994,05:00,1,R,ugm-3,13,R,ugm-3,15,R,ugm-3
06-01-1994,06:00,3,R,ugm-3,13,R,ugm-3,17,R,ugm-3
06-01-1994,07:00,19,R,ugm-3,27,R,ugm-3,55,R,ugm-3
06-01-1994,08:00,13,R,ugm-3,36,R,ugm-3,55,R,ugm-3
06-01-1994,09:00,14,R,ugm-3,40,R,ugm-3,61,R,ugm-3
06-01-1994,10:00,28,R,ugm-3,50,R,ugm-3,92,R,ugm-3
06-01-1994,11:00,25,R,ugm-3,46,R,ugm-3,84,R,ugm-3
06-01-1994,12:00,16,R,ugm-3,44,R,ugm-3,69,R,ugm-3
06-01-1994,13:00,49,R,ugm-3,73,R,ugm-3,147,R,ugm-3
06-01-1994,14:00,50,R,ugm-3,73,R,ugm-3,149,R,ugm-3
06-01-1994,15:00,65,R,ugm-3,82,R,ugm-3,181,R,ugm-3
06-01-1994,16:00,64,R,ugm-3,84,R,ugm-3,181,R,ugm-3
06-01-1994,17:00,74,R,ugm-3,71,R,ugm-3,183,R,ugm-3
06-01-1994,18:00,66,R,ugm-3,67,R,ugm-3,168,R,ugm-3
06-01-1994,19:00,163,R,ugm-3,63,R,ugm-3,311,R,ugm-3
06-01-1994,20:00,281,R,ugm-3,67,R,ugm-3,497,R,ugm-3
06-01-1994,21:00,145,R,ugm-3,57,R,ugm-3,279,R,ugm-3
06-01-1994,22:00,104,R,ugm-3,59,R,ugm-3,218,R,ugm-3
06-01-1994,23:00,58,R,ugm-3,57,R,ugm-3,145,R,ugm-3
06-01-1994,24:00,69,R,ugm-3,59,R,ugm-3,164,R,ugm-3
07-01-1994,01:00,54,R,ugm-3,55,R,ugm-3,138,R,ugm-3
07-01-1994,02:00,14,R,ugm-3,46,R,ugm-3,67,R,ugm-3
07-01-1994,03:00,3,R,ugm-3,25,R,ugm-3,29,R,ugm-3
07-01-1994,04:00,1,R,ugm-3,10,R,ugm-3,11,R,ugm-3
07-01-1994,05:00,3,R,ugm-3,8,R,ugm-3,11,R,ugm-3
07-01-1994,06:00,9,R,ugm-3,13,R,ugm-3,27,R,ugm-3
07-01-1994,07:00,40,R,ugm-3,38,R,ugm-3,99,R,ugm-3
07-01-1994,08:00,159,R,ugm-3,82,R,ugm-3,325,R,ugm-3
07-01-1994,09:00,50,R,ugm-3,55,R,ugm-3,132,R,ugm-3
07-01-1994,10:00,29,R,ugm-3,52,R,ugm-3,96,R,ugm-3
07-01-1994,11:00,55,R,ugm-3,61,R,ugm-3,145,R,ugm-3
07-01-1994,12:00,36,R,ugm-3,53,R,ugm-3,109,R,ugm-3
07-01-1994,13:00,39,R,ugm-3,52,R,ugm-3,111,R,ugm-3
07-01-1994,14:00,130,R,ugm-3,90,R,ugm-3,288,R,ugm-3
07-01-1994,15:00,81,R,ugm-3,57,R,ugm-3,181,R,ugm-3
07-01-1994,16:00,91,R,ugm-3,50,R,ugm-3,189,R,ugm-3
07-01-1994,17:00,59,R,ugm-3,52,R,ugm-3,141,R,ugm-3
07-01-1994,18:00,66,R,ugm-3,50,R,ugm-3,151,R,ugm-3
07-01-1994,19:00,73,R,ugm-3,52,R,ugm-3,162,R,ugm-3
07-01-1994,20:00,55,R,ugm-3,48,R,ugm-3,132,R,ugm-3
07-01-1994,21:00,58,R,ugm-3,50,R,ugm-3,138,R,ugm-3
07-01-1994,22:00,55,R,ugm-3,50,R,ugm-3,134,R,ugm-3
07-01-1994,23:00,19,R,ugm-3,44,R,ugm-3,73,R,ugm-3
07-01-1994,24:00,38,R,ugm-3,42,R,ugm-3,99,R,ugm-3
08-01-1994,01:00,54,R,ugm-3,46,R,ugm-3,128,R,ugm-3
08-01-1994,02:00,6,R,ugm-3,42,R,ugm-3,52,R,ugm-3
08-01-1994,03:00,5,R,ugm-3,40,R,ugm-3,48,R,ugm-3
08-01-1994,04:00,10,R,ugm-3,40,R,ugm-3,55,R,ugm-3
08-01-1994,05:00,6,R,ugm-3,38,R,ugm-3,48,R,ugm-3
08-01-1994,06:00,11,R,ugm-3,42,R,ugm-3,59,R,ugm-3
08-01-1994,07:00,170,R,ugm-3,96,R,ugm-3,355,R,ugm-3
08-01-1994,08:00,168,R,ugm-3,73,R,ugm-3,329,R,ugm-3
08-01-1994,09:00,113,R,ugm-3,55,R,ugm-3,227,R,ugm-3
08-01-1994,10:00,118,R,ugm-3,59,R,ugm-3,239,R,ugm-3
08-01-1994,11:00,129,R,ugm-3,59,R,ugm-3,256,R,ugm-3
08-01-1994,12:00,136,R,ugm-3,63,R,ugm-3,271,R,ugm-3
08-01-1994,13:00,128,R,ugm-3,61,R,ugm-3,256,R,ugm-3
08-01-1994,14:00,131,R,ugm-3,57,R,ugm-3,258,R,ugm-3
08-01-1994,15:00,144,R,ugm-3,63,R,ugm-3,283,R,ugm-3
08-01-1994,16:00,140,R,ugm-3,74,R,ugm-3,288,R,ugm-3
08-01-1994,17:00,91,R,ugm-3,65,R,ugm-3,204,R,ugm-3
08-01-1994,18:00,128,R,ugm-3,73,R,ugm-3,267,R,ugm-3
08-01-1994,19:00,131,R,ugm-3,73,R,ugm-3,273,R,ugm-3
08-01-1994,20:00,95,R,ugm-3,69,R,ugm-3,214,R,ugm-3
08-01-1994,21:00,140,R,ugm-3,71,R,ugm-3,285,R,ugm-3
08-01-1994,22:00,149,R,ugm-3,74,R,ugm-3,302,R,ugm-3
08-01-1994,23:00,155,R,ugm-3,74,R,ugm-3,311,R,ugm-3
08-01-1994,24:00,111,R,ugm-3,67,R,ugm-3,237,R,ugm-3
09-01-1994,01:00,65,R,ugm-3,52,R,ugm-3,151,R,ugm-3
09-01-1994,02:00,68,R,ugm-3,50,R,ugm-3,153,R,ugm-3
09-01-1994,03:00,89,R,ugm-3,48,R,ugm-3,183,R,ugm-3
09-01-1994,04:00,111,R,ugm-3,48,R,ugm-3,218,R,ugm-3
09-01-1994,05:00,110,R,ugm-3,52,R,ugm-3,220,R,ugm-3
09-01-1994,06:00,24,R,ugm-3,34,R,ugm-3,71,R,ugm-3
09-01-1994,07:00,106,R,ugm-3,44,R,ugm-3,206,R,ugm-3
09-01-1994,08:00,123,R,ugm-3,55,R,ugm-3,243,R,ugm-3
09-01-1994,09:00,15,R,ugm-3,32,R,ugm-3,55,R,ugm-3
09-01-1994,10:00,15,R,ugm-3,29,R,ugm-3,52,R,ugm-3
09-01-1994,11:00,20,R,ugm-3,31,R,ugm-3,61,R,ugm-3
09-01-1994,12:00,39,R,ugm-3,34,R,ugm-3,94,R,ugm-3
09-01-1994,13:00,44,R,ugm-3,38,R,ugm-3,105,R,ugm-3
09-01-1994,14:00,44,R,ugm-3,42,R,ugm-3,109,R,ugm-3
09-01-1994,15:00,78,R,ugm-3,52,R,ugm-3,170,R,ugm-3
09-01-1994,16:00,33,R,ugm-3,40,R,ugm-3,90,R,ugm-3
09-01-1994,17:00,61,R,ugm-3,48,R,ugm-3,141,R,ugm-3
09-01-1994,18:00,41,R,ugm-3,44,R,ugm-3,107,R,ugm-3
09-01-1994,19:00,15,R,ugm-3,32,R,ugm-3,55,R,ugm-3
09-01-1994,20:00,14,R,ugm-3,31,R,ugm-3,52,R,ugm-3
09-01-1994,21:00,18,R,ugm-3,31,R,ugm-3,57,R,ugm-3
09-01-1994,22:00,14,R,ugm-3,29,R,ugm-3,50,R,ugm-3
09-01-1994,23:00,3,R,ugm-3,11,R,ugm-3,15,R,ugm-3
09-01-1994,24:00,10,R,ugm-3,19,R,ugm-3,34,R,ugm-3
10-01-1994,01:00,9,R,ugm-3,31,R,ugm-3,44,R,ugm-3
10-01-1994,02:00,65,R,ugm-3,53,R,ugm-3,153,R,ugm-3
10-01-1994,03:00,16,R,ugm-3,38,R,ugm-3,63,R,ugm-3
10-01-1994,04:00,31,R,ugm-3,48,R,ugm-3,96,R,ugm-3
10-01-1994,05:00,4,R,ugm-3,40,R,ugm-3,46,R,ugm-3
10-01-1994,06:00,69,R,ugm-3,57,R,ugm-3,162,R,ugm-3
10-01-1994,07:00,100,R,ugm-3,69,R,ugm-3,222,R,ugm-3
10-01-1994,08:00,141,R,ugm-3,69,R,ugm-3,285,R,ugm-3
10-01-1994,09:00,139,R,ugm-3,74,R,ugm-3,287,R,ugm-3
10-01-1994,10:00,71,R,ugm-3,63,R,ugm-3,172,R,ugm-3
10-01-1994,11:00,65,R,ugm-3,63,R,ugm-3,162,R,ugm-3
10-01-1994,12:00,50,R,ugm-3,59,R,ugm-3,136,R,ugm-3
10-01-1994,13:00,93,R,ugm-3,74,R,ugm-3,216,R,ugm-3
10-01-1994,14:00,38,R,ugm-3,59,R,ugm-3,117,R,ugm-3
10-01-1994,15:00,61,R,ugm-3,69,R,ugm-3,162,R,ugm-3
10-01-1994,16:00,45,R,ugm-3,67,R,ugm-3,136,R,ugm-3
10-01-1994,17:00,49,R,ugm-3,69,R,ugm-3,143,R,ugm-3
10-01-1994,18:00,151,R,ugm-3,88,R,ugm-3,319,R,ugm-3
10-01-1994,19:00,35,R,ugm-3,69,R,ugm-3,122,R,ugm-3
10-01-1994,20:00,28,R,ugm-3,69,R,ugm-3,111,R,ugm-3
10-01-1994,21:00,45,R,ugm-3,67,R,ugm-3,136,R,ugm-3
10-01-1994,22:00,30,R,ugm-3,63,R,ugm-3,109,R,ugm-3
10-01-1994,23:00,28,R,ugm-3,59,R,ugm-3,101,R,ugm-3
10-01-1994,24:00,11,R,ugm-3,53,R,ugm-3,71,R,ugm-3
11-01-1994,01:00,5,R,ugm-3,40,R,ugm-3,48,R,ugm-3
11-01-1994,02:00,3,R,ugm-3,38,R,ugm-3,42,R,ugm-3
11-01-1994,03:00,21,R,ugm-3,32,R,ugm-3,65,R,ugm-3
11-01-1994,04:00,40,R,ugm-3,44,R,ugm-3,105,R,ugm-3
11-01-1994,05:00,10,R,ugm-3,38,R,ugm-3,53,R,ugm-3
11-01-1994,06:00,33,R,ugm-3,38,R,ugm-3,88,R,ugm-3
11-01-1994,07:00,165,R,ugm-3,63,R,ugm-3,315,R,ugm-3
11-01-1994,08:00,123,R,ugm-3,57,R,ugm-3,244,R,ugm-3
11-01-1994,09:00,160,R,ugm-3,57,R,ugm-3,302,R,ugm-3
11-01-1994,10:00,139,R,ugm-3,57,R,ugm-3,269,R,ugm-3
11-01-1994,11:00,129,R,ugm-3,57,R,ugm-3,254,R,ugm-3
11-01-1994,12:00,54,R,ugm-3,48,R,ugm-3,130,R,ugm-3
11-01-1994,13:00,58,R,ugm-3,53,R,ugm-3,141,R,ugm-3
11-01-1994,14:00,108,R,ugm-3,63,R,ugm-3,227,R,ugm-3
11-01-1994,15:00,39,R,ugm-3,52,R,ugm-3,111,R,ugm-3
11-01-1994,16:00,123,R,ugm-3,73,R,ugm-3,260,R,ugm-3
11-01-1994,17:00,121,R,ugm-3,74,R,ugm-3,260,R,ugm-3
11-01-1994,18:00,86,R,ugm-3,67,R,ugm-3,199,R,ugm-3
11-01-1994,19:00,13,R,ugm-3,46,R,ugm-3,65,R,ugm-3
11-01-1994,20:00,5,R,ugm-3,44,R,ugm-3,52,R,ugm-3
11-01-1994,21:00,3,R,ugm-3,40,R,ugm-3,44,R,ugm-3
11-01-1994,22:00,3,R,ugm-3,34,R,ugm-3,38,R,ugm-3
11-01-1994,23:00,4,R,ugm-3,31,R,ugm-3,36,R,ugm-3
11-01-1994,24:00,1,R,ugm-3,23,R,ugm-3,25,R,ugm-3
12-01-1994,01:00,1,R,ugm-3,17,R,ugm-3,19,R,ugm-3
12-01-1994,02:00,3,R,ugm-3,15,R,ugm-3,19,R,ugm-3
12-01-1994,03:00,1,R,ugm-3,17,R,ugm-3,19,R,ugm-3
12-01-1994,04:00,23,R,ugm-3,27,R,ugm-3,61,R,ugm-3
12-01-1994,05:00,138,R,ugm-3,73,R,ugm-3,283,R,ugm-3
12-01-1994,06:00,119,R,ugm-3,61,R,ugm-3,243,R,ugm-3
12-01-1994,07:00,71,R,ugm-3,50,R,ugm-3,159,R,ugm-3
12-01-1994,08:00,36,R,ugm-3,50,R,ugm-3,105,R,ugm-3
12-01-1994,09:00,68,R,ugm-3,57,R,ugm-3,160,R,ugm-3
12-01-1994,10:00,19,R,ugm-3,44,R,ugm-3,73,R,ugm-3
12-01-1994,11:00,13,R,ugm-3,36,R,ugm-3,55,R,ugm-3
12-01-1994,12:00,15,R,ugm-3,42,R,ugm-3,65,R,ugm-3
12-01-1994,13:00,10,R,ugm-3,31,R,ugm-3,46,R,ugm-3
12-01-1994,14:00,13,R,ugm-3,27,R,ugm-3,46,R,ugm-3
12-01-1994,15:00,15,R,ugm-3,25,R,ugm-3,48,R,ugm-3
12-01-1994,16:00,4,R,ugm-3,27,R,ugm-3,32,R,ugm-3
12-01-1994,17:00,5,R,ugm-3,34,R,ugm-3,42,R,ugm-3
12-01-1994,18:00,4,R,ugm-3,31,R,ugm-3,36,R,ugm-3
12-01-1994,19:00,4,R,ugm-3,27,R,ugm-3,32,R,ugm-3
12-01-1994,20:00,3,R,ugm-3,21,R,ugm-3,25,R,ugm-3
12-01-1994,21:00,1,R,ugm-3,15,R,ugm-3,17,R,ugm-3
12-01-1994,22:00,3,R,ugm-3,15,R,ugm-3,19,R,ugm-3
12-01-1994,23:00,3,R,ugm-3,21,R,ugm-3,25,R,ugm-3
12-01-1994,24:00,1,R,ugm-3,8,R,ugm-3,10,R,ugm-3
13-01-1994,01:00,1,R,ugm-3,6,R,ugm-3,8,R,ugm-3
13-01-1994,02:00,0,R,ugm-3,4,R,ugm-3,4,R,ugm-3
13-01-1994,03:00,1,R,ugm-3,6,R,ugm-3,8,R,ugm-3
13-01-1994,04:00,1,R,ugm-3,4,R,ugm-3,6,R,ugm-3
13-01-1994,05:00,1,R,ugm-3,6,R,ugm-3,8,R,ugm-3
13-01-1994,06:00,1,R,ugm-3,10,R,ugm-3,11,R,ugm-3
13-01-1994,07:00,8,R,ugm-3,15,R,ugm-3,27,R,ugm-3
13-01-1994,08:00,15,R,ugm-3,31,R,ugm-3,53,R,ugm-3
13-01-1994,09:00,6,R,ugm-3,27,R,ugm-3,36,R,ugm-3
13-01-1994,10:00,8,R,ugm-3,25,R,ugm-3,36,R,ugm-3
13-01-1994,11:00,6,R,ugm-3,21,R,ugm-3,31,R,ugm-3
13-01-1994,12:00,9,R,ugm-3,25,R,ugm-3,38,R,ugm-3
13-01-1994,13:00,11,R,ugm-3,21,R,ugm-3,38,R,ugm-3
13-01-1994,14:00,8,R,ugm-3,19,R,ugm-3,31,R,ugm-3
13-01-1994,15:00,9,R,ugm-3,19,R,ugm-3,32,R,ugm-3
13-01-1994,16:00,6,R,ugm-3,23,R,ugm-3,32,R,ugm-3
13-01-1994,17:00,4,R,ugm-3,21,R,ugm-3,27,R,ugm-3
13-01-1994,18:00,5,R,ugm-3,17,R,ugm-3,25,R,ugm-3
13-01-1994,19:00,3,R,ugm-3,19,R,ugm-3,23,R,ugm-3
13-01-1994,20:00,1,R,ugm-3,17,R,ugm-3,19,R,ugm-3
13-01-1994,21:00,1,R,ugm-3,11,R,ugm-3,13,R,ugm-3
13-01-1994,22:00,0,R,ugm-3,11,R,ugm-3,11,R,ugm-3
13-01-1994,23:00,1,R,ugm-3,10,R,ugm-3,11,R,ugm-3
13-01-1994,24:00,1,R,ugm-3,6,R,ugm-3,8,R,ugm-3
14-01-1994,01:00,0,R,ugm-3,4,R,ugm-3,4,R,ugm-3
14-01-1994,02:00,1,R,ugm-3,4,R,ugm-3,6,R,ugm-3
14-01-1994,03:00,1,R,ugm-3,4,R,ugm-3,6,R,ugm-3
14-01-1994,04:00,1,R,ugm-3,4,R,ugm-3,6,R,ugm-3
14-01-1994,05:00,1,R,ugm-3,6,R,ugm-3,8,R,ugm-3
14-01-1994,06:00,3,R,ugm-3,8,R,ugm-3,11,R,ugm-3
14-01-1994,07:00,38,R,ugm-3,36,R,ugm-3,94,R,ugm-3
14-01-1994,08:00,50,R,ugm-3,46,R,ugm-3,122,R,ugm-3
14-01-1994,09:00,26,R,ugm-3,38,R,ugm-3,78,R,ugm-3
14-01-1994,10:00,34,R,ugm-3,44,R,ugm-3,96,R,ugm-3
14-01-1994,11:00,40,R,ugm-3,48,R,ugm-3,109,R,ugm-3
14-01-1994,12:00,38,R,ugm-3,40,R,ugm-3,97,R,ugm-3
14-01-1994,13:00,36,R,ugm-3,40,R,ugm-3,96,R,ugm-3
14-01-1994,14:00,31,R,ugm-3,34,R,ugm-3,82,R,ugm-3
14-01-1994,15:00,29,R,ugm-3,36,R,ugm-3,80,R,ugm-3
14-01-1994,16:00,21,R,ugm-3,42,R,ugm-3,74,R,ugm-3
14-01-1994,17:00,20,R,ugm-3,52,R,ugm-3,82,R,ugm-3
14-01-1994,18:00,25,R,ugm-3,50,R,ugm-3,88,R,ugm-3
14-01-1994,19:00,21,R,ugm-3,48,R,ugm-3,80,R,ugm-3
14-01-1994,20:00,15,R,ugm-3,46,R,ugm-3,69,R,ugm-3
14-01-1994,21:00,8,R,ugm-3,44,R,ugm-3,55,R,ugm-3
14-01-1994,22:00,6,R,ugm-3,32,R,ugm-3,42,R,ugm-3
14-01-1994,23:00,3,R,ugm-3,21,R,ugm-3,25,R,ugm-3
14-01-1994,24:00,6,R,ugm-3,23,R,ugm-3,32,R,ugm-3
15-01-1994,01:00,5,R,ugm-3,19,R,ugm-3,27,R,ugm-3
15-01-1994,02:00,5,R,ugm-3,13,R,ugm-3,21,R,ugm-3
15-01-1994,03:00,5,R,ugm-3,17,R,ugm-3,25,R,ugm-3
15-01-1994,04:00,3,R,ugm-3,13,R,ugm-3,17,R,ugm-3
15-01-1994,05:00,6,R,ugm-3,17,R,ugm-3,27,R,ugm-3
15-01-1994,06:00,11,R,ugm-3,25,R,ugm-3,42,R,ugm-3
15-01-1994,07:00,113,R,ugm-3,55,R,ugm-3,227,R,ugm-3
15-01-1994,08:00,149,R,ugm-3,76,R,ugm-3,304,R,ugm-3
15-01-1994,09:00,119,R,ugm-3,48,R,ugm-3,229,R,ugm-3
15-01-1994,10:00,208,R,ugm-3,59,R,ugm-3,376,R,ugm-3
15-01-1994,11:00,283,R,ugm-3,120,R,ugm-3,552,R,ugm-3
15-01-1994,12:00,186,R,ugm-3,99,R,ugm-3,384,R,ugm-3
15-01-1994,13:00,53,R,ugm-3,46,R,ugm-3,126,R,ugm-3
15-01-1994,14:00,43,R,ugm-3,63,R,ugm-3,128,R,ugm-3
15-01-1994,15:00,15,R,ugm-3,34,R,ugm-3,57,R,ugm-3
15-01-1994,16:00,16,R,ugm-3,25,R,ugm-3,50,R,ugm-3
15-01-1994,17:00,10,R,ugm-3,32,R,ugm-3,48,R,ugm-3
15-01-1994,18:00,8,R,ugm-3,29,R,ugm-3,40,R,ugm-3
15-01-1994,19:00,16,R,ugm-3,44,R,ugm-3,69,R,ugm-3
15-01-1994,20:00,10,R,ugm-3,36,R,ugm-3,52,R,ugm-3
15-01-1994,21:00,4,R,ugm-3,10,R,ugm-3,15,R,ugm-3
15-01-1994,22:00,5,R,ugm-3,11,R,ugm-3,19,R,ugm-3
15-01-1994,23:00,4,R,ugm-3,4,R,ugm-3,10,R,ugm-3
15-01-1994,24:00,4,R,ugm-3,10,R,ugm-3,15,R,ugm-3
16-01-1994,01:00,3,R,ugm-3,17,R,ugm-3,21,R,ugm-3
16-01-1994,02:00,3,R,ugm-3,13,R,ugm-3,17,R,ugm-3
16-01-1994,03:00,3,R,ugm-3,10,R,ugm-3,13,R,ugm-3
16-01-1994,04:00,3,R,ugm-3,8,R,ugm-3,11,R,ugm-3
16-01-1994,05:00,3,R,ugm-3,10,R,ugm-3,13,R,ugm-3
16-01-1994,06:00,4,R,ugm-3,8,R,ugm-3,13,R,ugm-3
16-01-1994,07:00,4,R,ugm-3,10,R,ugm-3,15,R,ugm-3
16-01-1994,08:00,4,R,ugm-3,11,R,ugm-3,17,R,ugm-3
16-01-1994,09:00,5,R,ugm-3,10,R,ugm-3,17,R,ugm-3
16-01-1994,10:00,5,R,ugm-3,13,R,ugm-3,21,R,ugm-3
16-01-1994,11:00,6,R,ugm-3,11,R,ugm-3,21,R,ugm-3
16-01-1994,12:00,10,R,ugm-3,15,R,ugm-3,31,R,ugm-3
16-01-1994,13:00,8,R,ugm-3,11,R,ugm-3,23,R,ugm-3
16-01-1994,14:00,11,R,ugm-3,17,R,ugm-3,34,R,ugm-3
16-01-1994,15:00,11,R,ugm-3,21,R,ugm-3,38,R,ugm-3
16-01-1994,16:00,5,R,ugm-3,19,R,ugm-3,27,R,ugm-3
16-01-1994,17:00,5,R,ugm-3,19,R,ugm-3,27,R,ugm-3
16-01-1994,18:00,5,R,ugm-3,21,R,ugm-3,29,R,ugm-3
16-01-1994,19:00,13,R,ugm-3,32,R,ugm-3,52,R,ugm-3
16-01-1994,20:00,3,R,ugm-3,13,R,ugm-3,17,R,ugm-3
16-01-1994,21:00,3,R,ugm-3,8,R,ugm-3,11,R,ugm-3
16-01-1994,22:00,4,R,ugm-3,6,R,ugm-3,11,R,ugm-3
16-01-1994,23:00,3,R,ugm-3,6,R,ugm-3,10,R,ugm-3
16-01-1994,24:00,1,R,ugm-3,8,R,ugm-3,10,R,ugm-3
17-01-1994,01:00,3,R,ugm-3,11,R,ugm-3,15,R,ugm-3
17-01-1994,02:00,5,R,ugm-3,8,R,ugm-3,15,R,ugm-3
17-01-1994,03:00,5,R,ugm-3,8,R,ugm-3,15,R,ugm-3
17-01-1994,04:00,3,R,ugm-3,4,R,ugm-3,8,R,ugm-3
17-01-1994,05:00,4,R,ugm-3,2,R,ugm-3,8,R,ugm-3
17-01-1994,06:00,10,R,ugm-3,11,R,ugm-3,27,R,ugm-3
17-01-1994,07:00,28,R,ugm-3,34,R,ugm-3,76,R,ugm-3
17-01-1994,08:00,114,R,ugm-3,90,R,ugm-3,264,R,ugm-3
17-01-1994,09:00,38,R,ugm-3,53,R,ugm-3,111,R,ugm-3
17-01-1994,10:00,66,R,ugm-3,65,R,ugm-3,166,R,ugm-3
17-01-1994,11:00,69,R,ugm-3,69,R,ugm-3,174,R,ugm-3
17-01-1994,12:00,116,R,ugm-3,84,R,ugm-3,262,R,ugm-3
17-01-1994,13:00,125,R,ugm-3,80,R,ugm-3,271,R,ugm-3
17-01-1994,14:00,138,R,ugm-3,84,R,ugm-3,294,R,ugm-3
17-01-1994,15:00,59,R,ugm-3,63,R,ugm-3,153,R,ugm-3
17-01-1994,16:00,60,R,ugm-3,67,R,ugm-3,159,R,ugm-3
17-01-1994,17:00,54,R,ugm-3,59,R,ugm-3,141,R,ugm-3
17-01-1994,18:00,64,R,ugm-3,63,R,ugm-3,160,R,ugm-3
17-01-1994,19:00,50,R,ugm-3,61,R,ugm-3,138,R,ugm-3
17-01-1994,20:00,15,R,ugm-3,53,R,ugm-3,76,R,ugm-3
17-01-1994,21:00,5,R,ugm-3,25,R,ugm-3,32,R,ugm-3
17-01-1994,22:00,4,R,ugm-3,29,R,ugm-3,34,R,ugm-3
17-01-1994,23:00,3,R,ugm-3,29,R,ugm-3,32,R,ugm-3
17-01-1994,24:00,3,R,ugm-3,15,R,ugm-3,19,R,ugm-3
18-01-1994,01:00,1,R,ugm-3,11,R,ugm-3,13,R,ugm-3
18-01-1994,02:00,1,R,ugm-3,11,R,ugm-3,13,R,ugm-3
18-01-1994,03:00,0,R,ugm-3,11,R,ugm-3,11,R,ugm-3
18-01-1994,04:00,0,R,ugm-3,11,R,ugm-3,11,R,ugm-3
18-01-1994,05:00,1,R,ugm-3,6,R,ugm-3,8,R,ugm-3
18-01-1994,06:00,1,R,ugm-3,13,R,ugm-3,15,R,ugm-3
18-01-1994,07:00,21,R,ugm-3,31,R,ugm-3,63,R,ugm-3
18-01-1994,08:00,29,R,ugm-3,46,R,ugm-3,90,R,ugm-3
18-01-1994,09:00,9,R,ugm-3,40,R,ugm-3,53,R,ugm-3
18-01-1994,10:00,6,R,ugm-3,38,R,ugm-3,48,R,ugm-3
18-01-1994,11:00,6,R,ugm-3,29,R,ugm-3,38,R,ugm-3
18-01-1994,12:00,5,R,ugm-3,27,R,ugm-3,34,R,ugm-3
18-01-1994,13:00,10,R,ugm-3,29,R,ugm-3,44,R,ugm-3
18-01-1994,14:00,,,,,,,,,
18-01-1994,15:00,5,R,ugm-3,21,R,ugm-3,29,R,ugm-3
18-01-1994,16:00,5,R,ugm-3,23,R,ugm-3,31,R,ugm-3
18-01-1994,17:00,4,R,ugm-3,32,R,ugm-3,38,R,ugm-3
18-01-1994,18:00,3,R,ugm-3,31,R,ugm-3,34,R,ugm-3
18-01-1994,19:00,3,R,ugm-3,29,R,ugm-3,32,R,ugm-3
18-01-1994,20:00,3,R,ugm-3,25,R,ugm-3,29,R,ugm-3
18-01-1994,21:00,3,R,ugm-3,25,R,ugm-3,29,R,ugm-3
18-01-1994,22:00,4,R,ugm-3,29,R,ugm-3,34,R,ugm-3
18-01-1994,23:00,1,R,ugm-3,15,R,ugm-3,17,R,ugm-3
18-01-1994,24:00,3,R,ugm-3,11,R,ugm-3,15,R,ugm-3
19-01-1994,01:00,5,R,ugm-3,8,R,ugm-3,15,R,ugm-3
19-01-1994,02:00,3,R,ugm-3,8,R,ugm-3,11,R,ugm-3
19-01-1994,03:00,4,R,ugm-3,8,R,ugm-3,13,R,ugm-3
19-01-1994,04:00,4,R,ugm-3,8,R,ugm-3,13,R,ugm-3
19-01-1994,05:00,5,R,ugm-3,13,R,ugm-3,21,R,ugm-3
19-01-1994,06:00,23,R,ugm-3,36,R,ugm-3,71,R,ugm-3
19-01-1994,07:00,13,R,ugm-3,27,R,ugm-3,46,R,ugm-3
19-01-1994,08:00,28,R,ugm-3,40,R,ugm-3,82,R,ugm-3
19-01-1994,09:00,29,R,ugm-3,52,R,ugm-3,96,R,ugm-3
19-01-1994,10:00,29,R,ugm-3,50,R,ugm-3,94,R,ugm-3
19-01-1994,11:00,28,R,ugm-3,36,R,ugm-3,78,R,ugm-3
19-01-1994,12:00,16,R,ugm-3,29,R,ugm-3,53,R,ugm-3
19-01-1994,13:00,15,R,ugm-3,27,R,ugm-3,50,R,ugm-3
19-01-1994,14:00,39,R,ugm-3,50,R,ugm-3,109,R,ugm-3
19-01-1994,15:00,38,R,ugm-3,42,R,ugm-3,99,R,ugm-3
19-01-1994,16:00,19,R,ugm-3,38,R,ugm-3,67,R,ugm-3
19-01-1994,17:00,25,R,ugm-3,48,R,ugm-3,86,R,ugm-3
19-01-1994,18:00,28,R,ugm-3,59,R,ugm-3,101,R,ugm-3
19-01-1994,19:00,13,R,ugm-3,52,R,ugm-3,71,R,ugm-3
19-01-1994,20:00,11,R,ugm-3,42,R,ugm-3,59,R,ugm-3
19-01-1994,21:00,9,R,ugm-3,31,R,ugm-3,44,R,ugm-3
19-01-1994,22:00,6,R,ugm-3,29,R,ugm-3,38,R,ugm-3
19-01-1994,23:00,6,R,ugm-3,17,R,ugm-3,27,R,ugm-3
19-01-1994,24:00,4,R,ugm-3,17,R,ugm-3,23,R,ugm-3
20-01-1994,01:00,4,R,ugm-3,11,R,ugm-3,17,R,ugm-3
20-01-1994,02:00,4,R,ugm-3,10,R,ugm-3,15,R,ugm-3
20-01-1994,03:00,4,R,ugm-3,6,R,ugm-3,11,R,ugm-3
20-01-1994,04:00,3,R,ugm-3,8,R,ugm-3,11,R,ugm-3
20-01-1994,05:00,4,R,ugm-3,8,R,ugm-3,13,R,ugm-3
20-01-1994,06:00,6,R,ugm-3,17,R,ugm-3,27,R,ugm-3
20-01-1994,07:00,63,R,ugm-3,61,R,ugm-3,157,R,ugm-3
20-01-1994,08:00,49,R,ugm-3,65,R,ugm-3,139,R,ugm-3
20-01-1994,09:00,31,R,ugm-3,55,R,ugm-3,103,R,ugm-3
20-01-1994,10:00,50,R,ugm-3,57,R,ugm-3,134,R,ugm-3
20-01-1994,11:00,28,R,ugm-3,42,R,ugm-3,84,R,ugm-3
20-01-1994,12:00,21,R,ugm-3,38,R,ugm-3,71,R,ugm-3
20-01-1994,13:00,20,R,ugm-3,34,R,ugm-3,65,R,ugm-3
20-01-1994,14:00,30,R,ugm-3,44,R,ugm-3,90,R,ugm-3
20-01-1994,15:00,14,R,ugm-3,38,R,ugm-3,59,R,ugm-3
20-01-1994,16:00,18,R,ugm-3,50,R,ugm-3,76,R,ugm-3
20-01-1994,17:00,31,R,ugm-3,53,R,ugm-3,101,R,ugm-3
20-01-1994,18:00,18,R,ugm-3,48,R,ugm-3,74,R,ugm-3
20-01-1994,19:00,9,R,ugm-3,32,R,ugm-3,46,R,ugm-3
20-01-1994,20:00,6,R,ugm-3,29,R,ugm-3,38,R,ugm-3